Home > Weather > Jakobstad > Past weeks

Flag for Finland Past Weather in Jakobstad, Finland — Yesterday and Last 2 Weeks

Now
54 °F

Broken clouds.


Feels Like: 51 °F
Forecast: 42 / 60 °F
Wind: 8 mph from Northwest

Location: Kruunupyy

Current Time: Aug 28, 2016 at 3:31:54 PM

Latest Report: Aug 28, 2016 at 2:50 PM


Visibility: N/A

Pressure: 30.12 "Hg

Humidity: 51%

Dew Point: 36 °F

Location of JakobstadLocation

Past Weather in Jakobstad — Graph

°F

Jakobstad Temperature Yesterday

Maximum temperature yesterday: 63 °F (at 5:20 AM)
Minimum temperature yesterday: 48 °F (at 6:50 PM)
Average temperature yesterday: 57 °F

High & Low Weather Summary for the Past Weeks

 TemperatureHumidityPressure
High70 °F (Aug 18, 2:20 PM)100% (Aug 13, 4:20 PM)30.24 "Hg (Aug 13, 4:20 PM)
Low43 °F (Aug 24, 11:20 PM)49% (Aug 26, 11:50 AM)29.27 "Hg (Aug 27, 12:50 PM)
Average58 °F85%29.94 "Hg
* Reported Aug 13 2:20 PM — Aug 28 2:20 PM, Jakobstad, Weather by CustomWeather, © 2016

Note: Actual official high and low records may vary slightly from our data, if they occured in-between our weather recording intervals... More about our weather records

Advertising

Jakobstad Weather History for the Previous 24 Hours

Scroll right to see more
 ConditionsComfort  
Time TempWeatherWind HumidityBarometerVisibility
2:20 PM
Sun, Aug 28
55 °FScattered clouds.7 mph55%30.12 "HgN/A
1:50 PM55 °FPassing clouds.6 mph51%30.12 "HgN/A
1:20 PM55 °FSunny.5 mph51%30.12 "Hg10 mi
12:50 PM54 °FSunny.1 mph51%30.12 "Hg10 mi
12:20 PM54 °FSunny.5 mph51%30.12 "Hg10 mi
11:50 AM54 °FPassing clouds.6 mph51%30.12 "HgN/A
11:20 AM52 °FPassing clouds.5 mph54%30.12 "HgN/A
10:50 AM52 °FPassing clouds.6 mph54%30.09 "HgN/A
10:20 AM52 °FPassing clouds.6 mph54%30.09 "HgN/A
9:50 AM52 °FPassing clouds.8 mph54%30.09 "HgN/A
9:20 AM52 °FSunny.7 mph54%30.07 "Hg10 mi
8:50 AM50 °FPassing clouds.5 mph58%30.07 "HgN/A
8:20 AM50 °FPassing clouds.7 mph62%30.04 "HgN/A
7:50 AM48 °FPassing clouds.5 mph66%30.04 "HgN/A
7:20 AM48 °FSunny.3 mph66%30.04 "Hg10 mi
6:50 AM46 °FClear.3 mph71%30.01 "Hg10 mi
6:20 AM48 °FClear.5 mph71%30.01 "Hg10 mi
5:50 AM48 °FClear.3 mph71%30.01 "Hg10 mi
5:20 AM48 °FClear.2 mph71%29.98 "Hg10 mi
4:50 AM48 °FClear.3 mph71%29.98 "Hg10 mi
4:20 AM48 °FPassing clouds.6 mph71%29.98 "HgN/A
3:50 AM48 °FClear.3 mph76%29.95 "Hg10 mi
3:20 AM48 °FClear.5 mph76%29.95 "Hg10 mi
2:50 AM48 °FPassing clouds.7 mph76%29.92 "HgN/A
2:20 AM50 °FPassing clouds.7 mph76%29.92 "HgN/A
1:50 AM50 °FMostly cloudy.7 mph76%29.89 "HgN/A
1:20 AM50 °FPassing clouds.10 mph76%29.89 "HgN/A
12:50 AM50 °FPassing clouds.10 mph76%29.86 "HgN/A
12:20 AM52 °FPassing clouds.12 mph72%29.86 "HgN/A
11:50 PM
Sat, Aug 27
52 °FMostly cloudy.13 mph72%29.83 "HgN/A
11:20 PM52 °FPassing clouds.12 mph72%29.80 "HgN/A
10:50 PM52 °FPassing clouds.16 mph72%29.77 "HgN/A
10:20 PM52 °FPassing clouds.12 mph72%29.77 "HgN/A
9:50 PM52 °FPartly sunny.16 mph72%29.74 "HgN/A
9:20 PM52 °FPartly sunny.17 mph72%29.71 "HgN/A
8:50 PM52 °FBroken clouds.18 mph77%29.68 "HgN/A
8:20 PM52 °FPartly sunny.16 mph77%29.65 "HgN/A
7:50 PM50 °FSprinkles. Partly sunny.21 mph82%29.62 "Hg5 mi
7:20 PM50 °FSprinkles. Broken clouds.20 mph88%29.59 "HgN/A
6:50 PM48 °FSprinkles. Broken clouds.18 mph94%29.56 "Hg4 mi
6:20 PM50 °FRain. Mostly cloudy.24 mph88%29.53 "Hg2 mi
5:50 PM52 °FSprinkles. Mostly cloudy.21 mph77%29.50 "Hg5 mi
5:20 PM52 °FSprinkles. More clouds than sun.20 mph88%29.45 "Hg4 mi
4:50 PM54 °FSprinkles. Fog.22 mph88%29.42 "Hg2 mi
4:20 PM55 °FPartly sunny.16 mph88%29.36 "HgN/A
3:50 PM55 °FCloudy.17 mph88%29.36 "Hg4 mi
3:20 PM57 °FBroken clouds.20 mph82%29.33 "HgN/A
Weather by CustomWeather, © 2016

See weather overviewHow to use our weather pages